TimeCST,TemperatureF,Dew PointF,Humidity,Sea Level PressureIn,VisibilityMPH,Wind Direction,Wind SpeedMPH,Gust SpeedMPH,PrecipitationIn,Events,Conditions,WindDirDegrees,DateUTC
12:53 AM,12.9,7.0,77,30.35,10.0,SSW,5.8,-,N/A,,Overcast,210,2013-01-15 06:53:00
1:53 AM,14.0,8.1,77,30.34,10.0,SW,4.6,-,N/A,,Overcast,220,2013-01-15 07:53:00
2:53 AM,16.0,10.0,77,30.33,10.0,SW,4.6,-,N/A,,Overcast,230,2013-01-15 08:53:00
3:53 AM,16.0,10.9,81,30.32,10.0,SW,4.6,-,N/A,,Overcast,220,2013-01-15 09:53:00
4:53 AM,14.0,10.4,86,30.19,10.0,SSW,4.6,-,N/A,,Mostly Cloudy,210,2013-01-15 10:53:00
5:53 AM,10.0,7.0,87,30.30,10.0,SW,4.6,-,N/A,,Clear,220,2013-01-15 11:53:00
6:53 AM,6.1,3.0,87,30.31,10.0,South,3.5,-,N/A,,Clear,170,2013-01-15 12:53:00
7:53 AM,8.1,5.0,87,30.29,10.0,SSW,10.4,-,N/A,,Clear,200,2013-01-15 13:53:00
8:53 AM,10.9,7.0,84,30.31,10.0,Calm,Calm,-,N/A,,Clear,0,2013-01-15 14:53:00
9:53 AM,16.0,10.0,77,30.29,10.0,SW,10.4,-,N/A,,Clear,220,2013-01-15 15:53:00
10:53 AM,23.0,6.1,48,30.27,10.0,SW,15.0,-,N/A,,Clear,230,2013-01-15 16:53:00
11:53 AM,28.0,3.9,36,30.23,10.0,WSW,18.4,-,N/A,,Clear,240,2013-01-15 17:53:00
12:53 PM,30.0,1.9,30,30.17,10.0,WSW,18.4,-,N/A,,Clear,240,2013-01-15 18:53:00
1:53 PM,32.0,1.0,27,30.14,10.0,WSW,16.1,-,N/A,,Clear,240,2013-01-15 19:53:00
2:53 PM,33.1,1.0,26,30.13,10.0,WSW,16.1,-,N/A,,Clear,240,2013-01-15 20:53:00
3:53 PM,33.1,-0.0,24,30.13,10.0,WSW,13.8,-,N/A,,Clear,240,2013-01-15 21:53:00
4:53 PM,30.9,1.9,29,30.13,10.0,WSW,9.2,-,N/A,,Clear,250,2013-01-15 22:53:00
5:53 PM,24.1,3.9,42,30.15,10.0,SW,5.8,-,N/A,,Clear,230,2013-01-15 23:53:00
6:53 PM,19.0,3.9,52,30.16,10.0,SSW,8.1,-,N/A,,Partly Cloudy,210,2013-01-16 00:53:00
7:53 PM,18.0,5.0,57,30.14,10.0,SSW,6.9,-,N/A,,Clear,210,2013-01-16 01:53:00
8:53 PM,17.1,7.0,65,30.11,10.0,SW,8.1,-,N/A,,Clear,220,2013-01-16 02:53:00
9:53 PM,21.0,10.0,63,30.09,10.0,WSW,11.5,-,N/A,,Partly Cloudy,240,2013-01-16 03:53:00
10:53 PM,19.0,10.9,71,30.06,10.0,SW,6.9,-,N/A,,Partly Cloudy,230,2013-01-16 04:53:00
11:53 PM,23.0,14.0,68,30.03,10.0,WSW,9.2,-,N/A,,Mostly Cloudy,240,2013-01-16 05:53:00